Location: Newark
(48.8481°N, 20.9372°E)
Time: 08:28:27
(UTC+00:00)

ISS - Visible Passes

Search period start: 18 January 2020 00:00
Search period end: 28 January 2020 00:00
Orbit: 415 x 421 km, 51.6° (Epoch: 18 January)

Date Brightness Start Highest point End Pass type
(mag) Time Alt. Az. Time Alt. Az. Time Alt. Az.
20 Jan -1.4 17:25:52 10° SSW 17:26:51 15° S 17:26:51 15° S visible
21 Jan -1.7 16:38:51 10° S 16:40:42 14° SE 16:41:08 14° SE visible
21 Jan -0.7 18:13:38 10° WSW 18:14:05 13° SW 18:14:05 13° SW visible
22 Jan -2.7 17:25:48 10° SW 17:28:17 37° S 17:28:17 37° S visible
23 Jan -2.6 16:38:07 10° SSW 16:41:07 30° SE 16:42:24 23° ESE visible
23 Jan -0.9 18:14:21 10° WSW 18:15:21 18° W 18:15:21 18° W visible
24 Jan -2.0 15:50:39 10° S 15:53:14 21° SE 15:55:50 10° E visible
24 Jan -3.7 17:26:18 10° WSW 17:29:24 74° WSW 17:29:24 74° WSW visible
25 Jan -3.6 16:38:19 10° SW 16:41:40 64° SSE 16:43:24 25° E visible
25 Jan -1.0 18:15:13 10° W 18:16:20 19° W 18:16:20 19° W visible
26 Jan -3.5 17:27:04 10° W 17:30:18 60° NNW 17:30:18 60° NNW visible
27 Jan -3.7 16:38:57 10° WSW 16:42:19 73° NNW 16:44:13 24° ENE visible
27 Jan -1.0 18:16:01 10° WNW 18:17:09 19° WNW 18:17:09 19° WNW visible
